Flag for U.S.A. Weather past 2 weeks in Glennallen, Alaska, U.S.A.

Now
17 °F

Clear.


Feels Like: 17 °F
Forecast: 14 / 41 °F
Wind: No wind

Location: Gulkana Airport

Current Time: Oct 1, 2014 at 7:06:03 AM

Latest Report: Oct 1, 2014 at 5:53 AM


Visibility: 10 mi

Pressure: 30.41 "Hg

Humidity: 88%

Dew point: 14 °F

Location of GlennallenLocation

Historic Weather in Glennallen — Graph

°F

Glennallen temperature yesterday

Maximum temperature yesterday: 44 °F (at 1:53 PM)
Minimum temperature yesterday: 23 °F (at 11:53 PM)
Average temperature yesterday: 34 °F

Past Weeks' High & Low Weather Summary

 TemperatureHumidityPressure
High58 °F (Sep 19, 1:53 PM)100% (Sep 21, 6:53 AM)30.41 "Hg (Sep 21, 6:53 AM)
Low17 °F (Oct 1, 5:53 AM)31% (Sep 25, 4:53 PM)29.03 "Hg (Sep 18, 4:53 PM)
Average39 °F74%29.74 "Hg
* Reported Sep 16 5:53 AM — Oct 1 5:53 AM, Glennallen, Weather by CustomWeather, © 2014

Note: Actual official high and low records may vary slightly from our data, if they occured in-between our weather recording intervals... More about our weather records

Advertising

Glennallen weather history for previous 24 hours

 ConditionsComfort  
Time TempWeatherWind HumidityBarometerVisibility
5:53 AM
Oct 1
17 °FClear.No wind88%30.41 "Hg10 mi
4:53 AM19 °FClear.No wind85%30.40 "Hg10 mi
3:53 AM19 °FClear.3 mph85%30.39 "Hg10 mi
2:53 AM22 °FClear.7 mph82%30.38 "Hg10 mi
1:53 AM20 °FClear.No wind85%30.37 "Hg10 mi
12:53 AM21 °FClear.3 mph81%30.36 "Hg10 mi
11:53 PM
Sep 30
23 °FClear.No wind78%30.34 "Hg10 mi
10:53 PM25 °FClear.No wind75%30.33 "Hg10 mi
9:53 PM26 °FClear.No wind71%30.32 "Hg10 mi
8:53 PM26 °FClear.5 mph71%30.30 "Hg10 mi
7:53 PM33 °FSunny.No wind56%30.28 "Hg10 mi
6:53 PM39 °FSunny.5 mph43%30.25 "Hg10 mi
5:53 PM42 °FPartly sunny.6 mph38%30.22 "Hg10 mi
4:53 PM42 °FOvercast.5 mph38%30.21 "Hg10 mi
3:53 PM42 °FOvercast.14 mph38%30.20 "Hg10 mi
2:53 PM43 °FPartly sunny.9 mph32%30.19 "Hg10 mi
1:53 PM44 °FPassing clouds.7 mph32%30.18 "Hg10 mi
12:53 PM42 °FSunny.7 mph38%30.17 "Hg10 mi
11:53 AM40 °FSunny.8 mph45%30.16 "Hg10 mi
10:53 AM37 °FSunny.9 mph50%30.15 "Hg10 mi
9:53 AM34 °FSunny.8 mph56%30.14 "Hg10 mi
8:53 AM29 °FSunny.6 mph66%30.13 "Hg10 mi
7:53 AM27 °FClear.6 mph69%30.12 "Hg10 mi
Weather by CustomWeather, © 2014

See weather overviewHow to use our weather pages